This is the latest recevied weather packets stored in our database for station/object WX6HNX-5. If no packets are shown the sender has not sent any weather packets the latest 10 day(s).
| Time | Temp. | Humidity | Pressure | Rain* | Wind** | Luminosity | Snow |
|---|---|---|---|---|---|---|---|
| 1777924049 | 19.44° C | 53% | 1013.8 hPa | 0 mm | - | - | - |
| 1777923422 | 18.89° C | 50% | 1013.8 hPa | 0 mm | - | - | - |
| 1777923122 | 18.89° C | 50% | 1013.9 hPa | 0 mm | - | - | - |
| 1777922822 | 18.89° C | 51% | 1013.9 hPa | 0 mm | - | - | - |
| 1777922522 | 18.89° C | 52% | 1014 hPa | 0 mm | - | - | - |
| 1777922223 | 18.89° C | 52% | 1013.9 hPa | 0 mm | - | - | - |
| 1777921622 | 18.89° C | 53% | 1014.1 hPa | 0 mm | - | - | - |
| 1777921023 | 18.89° C | 52% | 1014.3 hPa | 0 mm | - | - | - |
| 1777919822 | 18.89° C | 50% | 1014.4 hPa | 0 mm | - | - | - |
| 1777919522 | 18.89° C | 51% | 1014.4 hPa | 0 mm | - | - | - |
| 1777919222 | 18.33° C | 54% | 1014.6 hPa | 0 mm | - | - | - |
| 1777918922 | 18.89° C | 54% | 1014.7 hPa | 0 mm | - | - | - |
| 1777918622 | 18.33° C | 56% | 1014.6 hPa | 0 mm | - | - | - |
| 1777918022 | 18.33° C | 55% | 1014.8 hPa | 0 mm | - | - | - |
| 1777917723 | 18.33° C | 56% | 1014.7 hPa | 0 mm | - | - | - |
| 1777916045 | 16.67° C | 59% | 1015 hPa | 0 mm | - | - | - |
| 1777915745 | 16.67° C | 60% | 1014.8 hPa | 0 mm | - | - | - |
| 1777915445 | 16.67° C | 59% | 1014.9 hPa | 0 mm | - | - | - |
| 1777915145 | 17.22° C | 60% | 1014.9 hPa | 0 mm | - | - | - |
| 1777914245 | 16.67° C | 62% | 1014.8 hPa | 0 mm | - | - | - |
| 1777913946 | 16.11° C | 62% | 1014.9 hPa | 0 mm | - | - | - |
| 1777912746 | 15.56° C | 63% | 1015 hPa | 0 mm | - | - | - |
| 1777912446 | 15.56° C | 63% | 1015 hPa | 0 mm | - | - | - |
| 1777911545 | 15.56° C | 62% | 1014.8 hPa | 0 mm | - | - | - |
| 1777909145 | 14.44° C | 63% | 1014.6 hPa | 0 mm | - | - | - |
* Rain latest hour (hover to see other rain measurements)
** Current wind speed in m/s (hover to see current wind gust speed)